Volver al catálogo

FREGAT R/B

ActivoHEO
NORAD 43688·ROCKET BODY·🇷🇺 Russia

Lanzado Nov 3, 2018 desde Plesetsk Cosmodrome

Loading…

Próximos Pases (próximas 24 horas)

TLE

ActualizadoSource: Space-Track

Época: Sep 13, 2026, 12:12 UTC

1 43688U 18086B   26256.50881517  .00000016  00000-0  00000-0 0  9995
2 43688  64.2169 193.8094 0063434 130.5487 229.9986  2.08703164 59663

Sigue FREGAT R/B en tiempo real con AllMySat

Download on the App Store